BSAT-4B

Last updated on Oct. 31, 2020, 5:53 a.m. UTC

1 46112U 20056A   20304.83824314 -.00000345  00000-0  00000-0 0  9992
2 46112   0.0947 102.2639 0002835  70.7182 278.1689  1.00271526   771
UTC
Height (km)
Latitude
Longitude
Inclination
Orbital Period
UTC large
Height (km)
Speed (km/s)
/
Latitude / Longitude
Inclination (degrees)
Orbital Period (minutes)
Azimuth
Elevation
Range (km)
Doppler Factor
iOS Compass Heading
iOS Angle

Next 30 passes for location: Hong Kong

Rise time Rise Azimuth (degrees) Set time Set Azimuth (degrees) Duration Max altitude (degrees)

No matching passes for this satellites